This is the latest recevied weather packets stored in our database for station/object KC8BSD. If no packets are shown the sender has not sent any weather packets the latest 1 day(s).
| Time | Temp. | Humidity | Pressure | Rain* | Wind** | Luminosity | Snow |
|---|---|---|---|---|---|---|---|
| 1778033543 | 10° C | 53% | 1009.8 hPa | 0 mm | - | 0 W/m² | - |
| 1778033240 | 10° C | 53% | 1009.9 hPa | 0 mm | - | 0 W/m² | - |
| 1778032636 | 10° C | 52% | 1010.2 hPa | 0 mm | - | 0 W/m² | - |
| 1778032333 | 10° C | 53% | 1010.1 hPa | 0 mm | - | 0 W/m² | - |
| 1778032030 | 10° C | 52% | 1010 hPa | 0 mm | - | 0 W/m² | - |
| 1778030816 | 10° C | 52% | 1009.6 hPa | 0 mm | - | 0 W/m² | - |
| 1778030211 | 10° C | 51% | 1009.6 hPa | 0 mm | - | 0 W/m² | - |
| 1778029907 | 10° C | 51% | 1009.6 hPa | 0 mm | - | 0 W/m² | - |
| 1778029606 | 10° C | 51% | 1009.3 hPa | 0 mm | - | 0 W/m² | - |
| 1778028697 | 10.56° C | 50% | 1009.7 hPa | 0 mm | - | 0 W/m² | - |
| 1778027787 | 10.56° C | 49% | 1009.7 hPa | 0 mm | - | 0 W/m² | - |
| 1778027483 | 10.56° C | 50% | 1009.6 hPa | 0 mm | - | 0 W/m² | - |
| 1778027179 | 10.56° C | 48% | 1009.6 hPa | 0 mm | - | 0 W/m² | - |
| 1778026875 | 10.56° C | 47% | 1009.6 hPa | 0 mm | - | 2 W/m² | - |
| 1778026571 | 10.56° C | 47% | 1009.7 hPa | 0 mm | - | 1 W/m² | - |
| 1778025966 | 11.11° C | 48% | 1009.5 hPa | 0 mm | - | 5 W/m² | - |
| 1778025058 | 11.11° C | 47% | 1009.5 hPa | 0 mm | - | 11 W/m² | - |
| 1778022938 | 11.67° C | 46% | 1008.9 hPa | 0 mm | - | 35 W/m² | - |
| 1778022637 | 11.67° C | 46% | 1008.7 hPa | 0 mm | - | 38 W/m² | - |
| 1778022334 | 11.67° C | 46% | 1008.9 hPa | 0 mm | - | 40 W/m² | - |
| 1778021727 | 12.22° C | 51% | 1008.9 hPa | 0 mm | - | 54 W/m² | - |
| 1778021423 | 12.22° C | 51% | 1008.9 hPa | 0 mm | - | 69 W/m² | - |
| 1778019907 | 12.22° C | 51% | 1009 hPa | 0 mm | - | 83 W/m² | - |
| 1778018997 | 12.22° C | 51% | 1009.2 hPa | 0 mm | - | 88 W/m² | - |
| 1778018694 | 12.22° C | 50% | 1008.9 hPa | 0 mm | - | 99 W/m² | - |
* Rain latest hour (hover to see other rain measurements)
** Current wind speed in m/s (hover to see current wind gust speed)